Location: Newark
(39.0083°N, 20.7336°E)
Time: 19:03:09
(UTC+00:00)

N. Korean satellite - Pass Details

Date: 25 September 2021
Orbit: 450 x 495 km, 97.3° (Epoch: 16 October)

Event Time Altitude Azimuth Distance (km) Brightness Sun altitude
Rises 03:32:12 0° 18° (NNE) 2,527 10.6 -11.5°
Reaches altitude 10° 03:34:19 10° 25° (NNE) 1,653 9.7 -11.1°
Maximum altitude 03:37:44 44° 99° (E) 672 7.8 -10.5°
Drops below altitude 10° 03:41:10 10° 173° (S) 1,664 9.3 -9.8°
Sets 03:43:18 0° 180° (S) 2,546 10.2 -9.4°
